IST,Max TemperatureF,Mean TemperatureF,Min TemperatureF,Max Dew PointF,MeanDew PointF,Min DewpointF,Max Humidity, Mean Humidity, Min Humidity, Max Sea Level PressureIn, Mean Sea Level PressureIn, Min Sea Level PressureIn, Max VisibilityMiles, Mean VisibilityMiles, Min VisibilityMiles, Max Wind SpeedMPH, Mean Wind SpeedMPH, Max Gust SpeedMPH,PrecipitationIn, CloudCover, Events, WindDirDegrees
2014-3-1,51,44,38,46,40,35,100,85,60,29.68,29.51,29.42,19,8,5,15,8,,0.03,6,Rain,167
2014-3-2,48,42,37,43,39,32,100,85,53,29.44,29.06,28.80,19,8,4,28,10,41,0.24,5,Rain,184
2014-3-3,48,42,36,41,37,35,100,82,57,29.54,29.16,28.77,19,9,6,18,10,25,0.00,4,Rain,285
2014-3-4,50,45,39,41,39,37,100,84,57,29.89,29.63,29.53,19,8,6,13,8,,0.01,4,Rain,224
2014-3-5,53,46,38,47,43,37,100,85,59,30.00,29.97,29.89,19,9,3,21,9,,0.04,7,Rain,163
2014-3-6,58,52,47,54,50,46,100,95,76,30.02,29.92,29.80,16,6,1,21,9,,0.28,7,Rain,165
2014-3-7,49,46,42,50,39,30,100,72,37,30.25,30.10,29.80,19,9,2,21,10,33,0.00,5,Rain,232
2014-3-8,55,49,43,48,46,39,94,81,58,30.05,29.86,29.80,19,9,2,37,24,45,0.02,6,Rain,163
2014-3-9,45,42,39,45,43,37,100,95,90,30.30,30.06,29.89,12,5,2,11,5,,0.08,7,Fog-Rain,323
2014-3-10,52,42,32,47,37,32,100,87,47,30.55,30.45,30.30,19,4,0,7,3,,0.00,4,Fog,88
2014-3-11,54,42,30,41,36,30,100,79,45,30.57,30.53,30.48,19,9,2,9,3,,0.00,1,Fog,100
2014-3-12,51,43,35,43,38,34,100,88,60,30.55,30.50,30.45,11,3,0,7,4,,0.00,3,Fog,120
2014-3-13,47,41,35,45,41,36,100,94,84,30.52,30.47,30.45,4,2,0,7,3,,0.00,6,Fog,95
2014-3-14,52,47,42,48,45,42,100,92,78,30.51,30.44,30.39,16,5,0,16,8,,0.00,7,Fog-Rain,248
2014-3-15,54,50,46,46,45,43,100,84,62,30.55,30.51,30.48,19,9,3,20,14,,0.00,6,Rain,266
2014-3-16,52,49,46,48,46,44,100,90,74,30.50,30.40,30.30,19,7,3,18,11,,0.00,7,Rain,260
2014-3-17,52,48,44,46,44,41,100,86,67,30.32,30.17,30.01,19,8,2,17,8,,0.01,6,Rain,224
2014-3-18,54,49,44,48,45,41,94,81,61,30.22,30.05,29.86,19,7,4,29,17,38,0.02,5,Rain,239
2014-3-19,59,52,46,48,45,43,93,79,62,30.20,30.00,29.65,19,9,5,31,14,41,0.00,4,Rain,195
2014-3-20,50,46,41,48,41,34,100,79,52,29.66,29.51,29.42,19,8,4,31,23,44,0.47,4,Rain-Hail,217
2014-3-21,47,41,35,41,37,34,93,82,58,29.61,29.47,29.36,19,7,4,28,15,39,0.16,5,Rain,212
2014-3-22,48,42,35,39,36,33,93,80,52,29.71,29.48,29.30,12,7,3,28,17,44,0.08,5,Rain-Hail,254
2014-3-23,50,44,38,39,36,32,89,68,39,29.96,29.89,29.71,19,9,6,21,11,33,0.00,2,Rain,263
2014-3-24,53,46,40,47,41,36,93,82,70,29.82,29.48,29.24,16,8,1,30,19,43,0.08,6,Rain,152
2014-3-25,52,46,39,43,39,37,93,77,49,30.27,29.89,29.53,19,8,5,21,10,,0.12,5,Rain,312
2014-3-26,53,45,37,42,38,35,100,76,46,30.33,30.22,30.01,19,9,6,16,9,24,0.00,4,,320
2014-3-27,47,42,37,39,36,32,100,81,48,30.02,29.93,29.89,19,8,6,14,7,,0.04,5,Rain,18
2014-3-28,50,42,34,40,37,34,100,80,53,30.04,29.99,29.95,12,7,4,18,9,,0.00,4,Rain,18
2014-3-29,50,45,40,47,42,39,100,88,58,29.94,29.79,29.62,19,6,2,16,10,,0.12,6,Rain,71
2014-3-30,54,46,39,50,43,37,100,85,53,29.83,29.76,29.62,19,7,4,12,9,,0.03,6,Rain,111
2014-3-31,57,52,46,47,46,42,95,80,52,29.80,29.75,29.71,19,8,4,18,10,,0.00,5,Rain,114